Weather in Podstepki

Russia / Samara Oblast     53°31′04″N   49°09′12″E
temp.,
°C
wind,
m/s
gust,
m/s
humid.,
%
clouds,
%
prec.,
mm/h
press.,
hPa
HPBL,
m
28 february, sun
sun2801:00−13nnw8139097 0.0 1002423
04:00−15nnw8139198 0.1 1004437
07:00−18nnw6139396 0.0 1006334
10:00−17nnw7119198 0.1 1008410
13:00−15nnw61090100 0.0 1009471
16:00−14nnw61090100 0.1 1011488
19:00−15nnw51094100 0.1 1013362
22:00−15nnw5109398 0.2 1015296
1 march, mon
mon101:00−17nnw459694 0.0 101783
04:00−19nnw459683 0.1 101991
07:00−20nnw449883 0.0 102065
10:00−18nnw479476 0.0 1022275
13:00−15nnw358878 0.0 1022340
16:00−14nne229083 0.0 1023143
19:00−17sse229668 0.0 102220
22:00−15ssw449248 0.0 102230
2 march, tue
tue201:00−14ssw469493 0.0 1019103
04:00−13ssw6109296 0.0 1016241
07:00−10ssw81294100 0.3 1012364
10:00−4sw81394100 1.4 1009641
13:00−1sw81296100 1.4 1005694
16:000wsw71298100 2.3 1003460
19:000w51094100 0.2 1003296
22:00−2w4894100 0.3 1003160
3 march, wed
wed301:00−6wnw459267 0.1 100345
04:00−8wnw339452 0.1 100424
07:00−7wnw339594 0.1 100434
10:00−6nw359488 0.2 1006167
13:00−2nw468686 0.1 1006668
16:00−2nnw588491 0.2 1007766
19:00−7nnw458957 0.0 100856
22:00−10wnw339129 0.0 101021
4 march, thu
thu401:00−10wnw34920 0.0 101125
04:00−11w45920 0.0 101136
07:00−12sw45910 0.0 101152
10:00−9sw6109110 0.0 1010262
13:00−3sw9128677 0.0 1007881
16:00−1sw10158588 0.1 1004956
19:00−1sw101784100 0.0 1001833
22:000sw81687100 0.0 1001727